Tracking 20376 objects as of 20-Feb-2020
HD Live streaming from Space Station
objects crossing your sky now
Track the group of recently launched Starlink satellites

HETE 2

Track HETE 2 now!
10-day predictions
HETE 2 is classified as:


NORAD ID: 26561
Int'l Code: 2000-061A
Perigee: 536.4 km
Apogee: 561.7 km
Inclination: 1.9 °
Period: 95.5 minutes
Semi major axis: 6920 km
RCS: 0.631 m2 (medium)
Launch date: October 9, 2000
Source: United States (US)
Launch site: Kwajalein (KWAJ)

Designed to detect and localize gamma-ray bursts.
aabbcc
Your satellite tracking list
Your tracking list is empty




NASA's NSSDC Master Catalog

Two Line Element Set (TLE):
1 26561U 00061A   20050.05180110 +.00001240 +00000-0 +21363-4 0  9996
2 26561 001.9485 258.6612 0018281 268.3876 091.4072 15.08115561062564
Source of the keplerian elements: AFSPC